Погода в Михайловке

Россия / Республика Башкортостан     55°34′49″N   57°55′58″E
темп.,
°C
ветер,
м/с
пор.,
м/с
влажн.,
%
обл.,
%
осадки,
мм/ч
давл.,
гПа
погр.,
м
22 апреля, чт
чт2223:00+7юв224797 0.0 103110
02:00+5ю225896 0.0 103114
05:00+5ююв2259100 0.0 103213
08:00+5ююв2458100 0.0 1032136
11:00+8ююз51047100 0.1 1032996
14:00+11ююз794698 0.0 10311511
17:00+10юз6857100 0.0 10311136
20:00+9юз4760100 0.0 1031284
23 апреля, пт
пт2323:00+6зюз5770100 0.0 1031449
02:00+3ююз51192100 0.9 1032621
05:00+3ююв3896100 3.8 1031535
08:00+4ю2697100 0.5 1031660
11:00+5ю2590100 0.6 1031718
14:00+7ююз3576100 0.0 1030738
17:00+11з135395 0.0 1028995
20:00+10св356999 0.0 1027104
24 апреля, сб
сб2423:00+7св2279100 0.0 102727
02:00+7ююв2278100 0.0 102519
05:00+6вюв1192100 0.7 102426
08:00+6вюв4892100 0.9 1023384
11:00+9юв6775100 1.2 1021917
14:00+10юв8966100 0.2 10181229
17:00+11юв6952100 0.3 10161686
20:00+9ююв6861100 0.0 10151040
25 апреля, вс
вс2523:00+6юв5877100 0.1 1015858
02:00+5ююв4783100 0.0 1014795
05:00+5ююв3689100 0.1 1013776
08:00+5ю4893100 0.4 1014708
11:00+7ю677968 0.4 1012733
14:00+9ююз61171100 0.1 10111586
17:00+9зюз9126220 1.6 10131551
20:00+7зюз510695 0.0 1015485
26 апреля, пн
пн2623:00+4ююз3682100 0.0 1017145
02:00+3ююз35904 0.1 1017104
05:00+2ююз3494100 0.1 101895
08:00+5ююз4883100 0.0 1018485
11:00+9юз71062100 0.2 10171286
14:00+10юз7953100 0.3 10161749
17:00+10юз6752100 0.4 10161571
20:00+8юз3565100 0.1 1014214